Orbital Elements at Epoch 2459200.5 (2020-Dec-17.0) TDB
Reference: JPL 23 (heliocentric ecliptic J2000)
Element | Value | Uncertainty (1-sigma) | Units |
e | .1546325200253374 | 5.6121e-08 | |
a | 2.531484054933708 | 1.0492e-08 | au |
q | 2.140034296115349 | 1.4347e-07 | au |
i | 11.56715882012543 | 5.6388e-06 | deg |
node | 233.8002761491759 | 2.1121e-05 | deg |
peri | 183.4488698037764 | 2.6706e-05 | deg |
M | 255.313714305234 | 1.8099e-05 | deg |
tp | 2459628.307615839387 (2022-Feb-17.80761584) | 7.5548e-05 | TDB |
period | 1471.164447950982 4.03 | 9.1464e-06 2.504e-08 | d yr |
n | .2447041189048601 | 1.5214e-09 | deg/d |
Q | 2.922933813752066 | 1.2115e-08 | au |
|
| | Orbit Determination Parameters
Additional Information
|